Location: ????????
(55.1591°N, 39.1782°E)
Time: 10:06:34
(UTC+00:00)

RESURS DK-1 - Pass Details

Date: 14 April 2024
Orbit: 543 x 547 km, 69.9° (Epoch: 28 May)

Event Time Altitude Azimuth Distance (km) Brightness Sun altitude
Exits shadow 01:06:15 14° 219° (SW) 1,574 4.0 -10.5°
Maximum altitude 01:09:42 80° 306° (NW) 559 2.3 -10.1°
Drops below altitude 10° 01:13:47 10° 34° (NE) 1,822 6.2 -9.6°
Sets 01:15:59 0° 36° (NE) 2,719 7.3 -9.3°
